Location: Altenst�hlen
(53.5567°N, 8.9425°E)
Time: 21:57:54
(UTC+00:00)

STARLINK-66 - Pass Details

Date: 23 October 2019
Orbit: 548 x 551 km, 53.0° (Epoch: 10 November)

Event Time Altitude Azimuth Distance (km) Brightness Sun altitude
Rises 18:35:42 0° 282° (WNW) 2,721 8.7 -22.1°
Reaches altitude 10° 18:37:58 10° 279° (W) 1,826 7.4 -22.4°
Maximum altitude 18:42:02 57° 200° (SSW) 650 3.9 -23.0°
Enters shadow 18:42:06 57° 196° (SSW) 651 3.9 -23.0°
